Regional Weather Roundup
Issued by NWS

Home | Current Version | Previous Version | Graphics & Text | Print | Product List | Glossary Off
Versions: 1 2 3 4 5 6 7 8 9 10 11 12 13 14 15 16 17 18 19 20 21 22 23 24 25 26 27 28 29 30 31 32 33 34 35 36 37 38 39 40 41 42 43 44 45 46 47 48 49 50

000
ASUS43 KDMX 301207
RWRIA

WEATHER ROUNDUP FOR IOWA
NATIONAL WEATHER SERVICE DES MOINES IA
700 AM CDT SAT MAY 30 2015

NOTE: "FAIR" INDICATES FEW OR NO CLOUDS BELOW 12,000 FEET WITH NO
SIGNIFICANT WEATHER AND/OR OBSTRUCTIONS TO VISIBILITY.

* - THESE STATIONS ARE NOT NWS STATIONS...THUS NOT UNDER NWS
QUALITY CONTROL.  THEY ALSO DO NOT REPORT WEATHER SUCH
AS PRECIPITATION OR FOG.

IAZ001>003-012>014-020>022-031>034-043>046-301300-
   NORTHWEST IOWA

CITY           SKY/WX    TMP DP  RH WIND       PRES   REMARKS
CARROLL *      CLOUDY    52  48  87 N18       30.10S
CHEROKEE *     CLOUDY    48  45  87 N17G24    30.15S
DENISON *      CLOUDY    52  52 100 N13       30.10S
LE MARS *      PTSUNNY   48  43  81 N16       30.19S
ORANGE CITY *  MOSUNNY   45  41  87 N13G22    30.18R
SHELDON *      SUNNY     46  43  87 N24       30.16S
SIOUX CITY     PTSUNNY   50  42  74 N17       30.17R
6HR MIN TEMP:  50; 6HR MAX TEMP:  52;

SPENCER        PTSUNNY   49  43  80 N18G25    30.15R
6HR MIN TEMP:  49; 6HR MAX TEMP:  53;

STORM LAKE *   CLOUDY    50  45  81 N23       30.13S
$$

IAZ055>058-069>071-079>083-090>094-301300-
   SOUTHWEST IOWA

CITY           SKY/WX    TMP DP  RH WIND       PRES   REMARKS
ATLANTIC *     CLOUDY    52  50  93 N14G22    30.09S FOG
AUDUBON *      DRIZZLE   52  48  87 N14       30.10S
CLARINDA *     CLOUDY    54  52  94 N15       30.09S
COUNCIL BLFS * CLOUDY    50  50 100 N10G18    30.11S FOG
CRESTON *      CLOUDY    54  54 100 N17G23    30.06R
HARLAN  *      CLOUDY    52  52 100 N10G16    30.14S
LAMONI         CLOUDY    58  53  84 N14       30.03R
6HR MIN TEMP:  58; 6HR MAX TEMP:  67; 6HR PCP:  0.01;

RED OAK *      CLOUDY    52  52 100 N12       30.10R FOG
SHENANDOAH *   CLOUDY    54  50  87 N13       30.11R
$$

IAZ047>049-059>061-072>074-084-301300-
   CENTRAL IOWA

CITY           SKY/WX    TMP DP  RH WIND       PRES   REMARKS
AMES           CLOUDY    55  52  89 N15       30.04S
6HR MIN TEMP:  54; 6HR MAX TEMP:  59; 6HR PCP: TRACE;

ANKENY *       CLOUDY    55  55 100 N10       30.04R FOG
CHARITON *     CLOUDY    57  55  94 NW13G18   30.03R FOG
DES MOINES     LGT RAIN  56  53  90 N9        30.04R FOG
6HR MIN TEMP:  56; 6HR MAX TEMP:  61; 6HR PCP:  0.02;

GRINNELL*      CLOUDY    57  54  88 N15G22    30.02R
KNOXVILLE *    CLOUDY    59  55  88 N14       30.00S
MARSHALLTOWN   LGT RAIN  56  54  93 N16       30.02R FOG
6HR MIN TEMP:  56; 6HR MAX TEMP:  63; 6HR PCP:  0.01;

PELLA *        CLOUDY    59  59  99 N7        30.02R
PERRY *        CLOUDY    53  51  95 N15       30.07R FOG
$$

IAZ004>006-015-016-023>025-035-036-301300-
   NORTH CENTRAL IOWA

CITY           SKY/WX    TMP DP  RH WIND       PRES   REMARKS
ALGONA *       CLOUDY    50  46  87 N18G25    30.12R
CLARION *      CLOUDY    52  50  93 N18       30.08S
ESTHERVILLE    PTSUNNY   46  43  89 N20       30.15R
6HR MIN TEMP:  46; 6HR MAX TEMP:  51;

FORT DODGE *   CLOUDY    52  45  76 N10G18    30.10R
MASON CITY     CLOUDY    52  47  83 N18       30.10R
6HR MIN TEMP:  52; 6HR MAX TEMP:  57; 6HR PCP: TRACE;

FOREST CITY *  CLOUDY    50  45  81 N16G23    30.10S
IOWA FALLS *   CLOUDY    54  50  87 N18G26    30.06S
$$

IAZ007>011-017>019-026>030-037>042-050>054-066-301300-
   NORTHEAST IOWA

CITY           SKY/WX    TMP DP  RH WIND       PRES   REMARKS
CEDAR RAPIDS   CLOUDY    62  62 100 NW12      29.96R
6HR MIN TEMP:  62; 6HR MAX TEMP:  65;

CHARLES CITY * CLOUDY    54  54 100 N15G23    30.06R
CLINTON *      CLOUDY    66  63  88 SW8       29.98S
DECORAH *      CLOUDY    54  54 100 N14       30.02R FOG
DUBUQUE        CLOUDY    65  63  93 W3        29.95S
6HR MIN TEMP:  64; 6HR MAX TEMP:  65; 6HR PCP:  0.04;

MONTICELLO *   CLOUDY    66  66 100 W5        29.96R
OELWEIN *      CLOUDY    59  57  94 N16       30.01R
WATERLOO       CLOUDY    57  55  93 N15       30.01R
6HR MIN TEMP:  57; 6HR MAX TEMP:  66;

$$

IAZ064-065-067-068-078-301300-
   EAST CENTRAL IOWA

CITY           SKY/WX    TMP DP  RH WIND       PRES   REMARKS
DAVENPORT      CLOUDY    66  62  87 SW8       29.96R
6HR MIN TEMP:  66; 6HR MAX TEMP:  68; 6HR PCP: TRACE;

IOWA CITY      CLOUDY    66  64  93 NW6       29.97S
6HR MIN TEMP:  66; 6HR MAX TEMP:  69;

MT. PLEASANT * CLOUDY    65  65  99 CALM      29.97S
MUSCATINE *    CLOUDY    66  64  94 SW5       29.96S
QUAD CITIES    LGT RAIN  66  63  90 SW7       29.95S
6HR MIN TEMP:  66; 6HR MAX TEMP:  68; 6HR PCP:  0.05;

$$

IAZ062-063-075>077-085>089-095>099-301300-
   SOUTHEAST IOWA

CITY           SKY/WX    TMP DP  RH WIND       PRES   REMARKS
BURLINGTON     RAIN      65  65 100 S6        29.96S FOG
6HR MIN TEMP:  65; 6HR MAX TEMP:  68; 6HR PCP:  0.22;

FAIRFIELD *    CLOUDY    63  61  94 NW13      29.97S
FORT MADISON * RAIN      64  64 100 S5        29.97S
KEOKUK *       LGT RAIN  64  64 100 CALM      29.96S
OSKALOOSA *    CLOUDY    59  58  96 N13       30.00R FOG
CENTERVILLE *  CLOUDY    59  59 100 NW15      30.02R
OTTUMWA        CLOUDY    61  60  97 NW10      29.98R
6HR MIN TEMP:  60; 6HR MAX TEMP:  66; 6HR PCP: TRACE;

WASHINGTON *   CLOUDY    66  64  94 NW13      29.98S
$$

ABBREVIATIONS USED IN REMARKS
   TC - TEMPERATURES IN CELSIUS
  WCI - WIND CHILL INDEX
   HX - HEAT INDEX
  VSB - VISIBILITY
$$



USA.gov is the U.S. government's official web portal to all federal, state and local government web resources and services.